Change the Weather History Date:

Saturday, March 16, 2013

  Actual Average Record
Temperature  
Mean Temperature 68 °F -  
Max Temperature 84 °F 69 °F 84 °F (2009)
Min Temperature 53 °F 50 °F 37 °F (2005)
Cooling Degree Days 4    
Growing Degree Days 18 (Base 50)    
Moisture  
Dew Point 57 °F    
Average Humidity 75    
Maximum Humidity 100    
Minimum Humidity 31    
Precipitation  
Precipitation 0.00 in - - ()
Sea Level Pressure  
Sea Level Pressure 29.89 in    
Wind  
Wind Speed 7 mph (SSW)    
Max Wind Speed 13 mph    
Max Gust Speed 20 mph    
Visibility 8 miles    
Events Rain    
Averages and records for this station are not official NWS values.
T = Trace of Precipitation, MM = Missing Value Source: NWS Daily Summary

Daily Weather History Graph

Daily Weather History Graph

Search for Another Location

Airport or City:

Trip Planner

Search our weather history database for the weather conditions in past years. The results will help you decide how hot, cold, wet, or windy it might be!

Date:

Astronomy

Mar. 16, 2013 Rise Set
Actual Time 7:41 AM CDT 7:42 PM CDT
Civil Twilight 7:17 AM CDT 8:06 PM CDT
Nautical Twilight 6:50 AM CDT 8:33 PM CDT
Astronomical Twilight 6:22 AM CDT 9:01 PM CDT
Moon 10:34 AM CDT (3/16) No Moon Set
Length of Visible Light 12h 48m
Length of Day
12h 00m
Waxing Crescent, 23% of the Moon is Illuminated
Mar 16
Waxing Crescent
Mar 19
First Quarter
Mar 27
Full
Apr 2
Last Quarter
Apr 10
New

Hourly Weather History & Observations

Time (CDT) Temp. Heat Index Dew Point Humidity Pressure Visibility Wind Dir Wind Speed Gust Speed Precip Events Conditions
12:58 AM 59.2 °F - 54.5 °F 84% 30.00 in 10.0 mi South 6.9 mph - N/A   Clear
1:58 AM 59.2 °F - 55.4 °F 87% 29.99 in 10.0 mi South 8.1 mph - N/A   Clear
2:58 AM 58.5 °F - 56.7 °F 94% 29.98 in 10.0 mi South 8.1 mph - N/A   Clear
3:58 AM 57.7 °F - 57.2 °F 98% 29.96 in 10.0 mi South 5.8 mph - N/A   Clear
4:58 AM 56.8 °F - 56.5 °F 99% 29.94 in 10.0 mi South 4.6 mph - N/A   Clear
5:58 AM 56.3 °F - 55.9 °F 99% 29.93 in 10.0 mi SSW 5.8 mph - N/A   Clear
6:58 AM 55.8 °F - 55.6 °F 99% 29.93 in 10.0 mi SW 3.5 mph - N/A   Clear
7:54 AM 53.6 °F - 53.6 °F 100% 29.94 in 2.0 mi SSW 3.5 mph - N/A   Clear
7:58 AM 53.6 °F - 51.8 °F 94% 29.93 in 1.8 mi SSW 3.5 mph - N/A   Clear
8:05 AM 53.6 °F - 53.6 °F 100% 29.94 in 2.0 mi SSW 3.5 mph - N/A   Clear
8:12 AM 53.6 °F - 53.6 °F 100% 29.94 in 3.0 mi South 3.5 mph - N/A   Clear
8:19 AM 53.6 °F - 53.6 °F 100% 29.94 in 6.0 mi Variable 1.2 mph - N/A   Clear
8:40 AM 57.2 °F - 57.2 °F 100% 29.94 in 10.0 mi SSW 3.5 mph - N/A   Mostly Cloudy
8:47 AM 57.2 °F - 57.2 °F 100% 29.94 in 10.0 mi SSW 3.5 mph - N/A   Mostly Cloudy
8:58 AM 57.6 °F - 57.6 °F 100% 29.93 in 7.0 mi SSW 4.6 mph - N/A   Overcast
9:58 AM 60.8 °F - 60.4 °F 99% 29.94 in 10.0 mi SSW 5.8 mph - N/A   Overcast
10:26 AM 64.4 °F - 60.8 °F 88% 29.95 in 10.0 mi South 5.8 mph - N/A   Mostly Cloudy
10:40 AM 64.4 °F - 60.8 °F 88% 29.95 in 8.0 mi SSW 10.4 mph - N/A   Scattered Clouds
10:58 AM 67.5 °F - 59.9 °F 77% 29.93 in 10.0 mi SSW 10.4 mph - N/A   Clear
11:58 AM 72.5 °F - 58.5 °F 61% 29.92 in 10.0 mi SSW 10.4 mph - N/A   Clear
12:54 PM 77.0 °F - 57.2 °F 50% 29.91 in 10.0 mi SSW 10.4 mph - N/A Rain Light Rain
12:58 PM 76.8 °F - 57.6 °F 51% 29.89 in 10.0 mi SSW 11.5 mph - 0.00 in Rain Light Rain
1:06 PM 77.0 °F - 57.2 °F 50% 29.90 in 8.0 mi SSW 10.4 mph 19.6 mph N/A   Clear
1:13 PM 78.8 °F - 57.2 °F 47% 29.89 in 0.8 mi SSW 10.4 mph - N/A   Haze
1:19 PM 78.8 °F - 57.2 °F 47% 29.89 in 1.2 mi SSW 9.2 mph - N/A Rain Light Rain
1:26 PM 78.8 °F - 55.4 °F 44% 29.88 in 10.0 mi SSW 12.7 mph - N/A Rain Light Rain
1:28 PM 78.8 °F - 55.4 °F 44% 29.88 in 10.0 mi SSW 9.2 mph - N/A   Clear
1:58 PM 80.1 °F 80.4 °F 56.7 °F 45% 29.85 in 10.0 mi SSW 10.4 mph - 0.00 in   Clear
2:58 PM 82.4 °F - 51.4 °F 34% 29.81 in 10.0 mi SSW 10.4 mph - N/A   Clear
3:58 PM 83.8 °F - 50.0 °F 31% 29.78 in 10.0 mi SSW 11.5 mph - N/A   Clear
4:58 PM 84.2 °F - 51.4 °F 32% 29.74 in 10.0 mi South 10.4 mph - N/A   Clear
5:58 PM 84.0 °F - 50.4 °F 31% 29.73 in 10.0 mi SSW 9.2 mph - N/A   Clear
6:58 PM 79.3 °F - 59.9 °F 51% 29.75 in 10.0 mi SSW 5.8 mph - N/A   Clear
7:58 PM 73.4 °F - 61.2 °F 65% 29.78 in 10.0 mi SSW 8.1 mph - N/A   Clear
8:58 PM 69.6 °F - 62.1 °F 77% 29.79 in 10.0 mi SSW 5.8 mph - N/A   Clear
9:58 PM 67.6 °F - 63.1 °F 85% 29.80 in 10.0 mi SSW 6.9 mph 18.4 mph N/A   Partly Cloudy
10:19 PM 66.2 °F - 62.6 °F 88% 29.82 in 10.0 mi SSW 6.9 mph - N/A   Mostly Cloudy
10:58 PM 66.9 °F - 63.3 °F 88% 29.82 in 10.0 mi SSW 6.9 mph - N/A   Overcast
11:58 PM 66.6 °F - 63.0 °F 88% 29.82 in 10.0 mi SSW 8.1 mph - N/A   Overcast